[[{"header":{"parameterUnit":"m.s-1","parameterCategory":1,"la1":30.2991,"la2":30.254,"lo1":-89.0895,"lo2":-89.0444,"dy":0.0017,"dx":0.0017,"nx":28,"ny":28,"refTime":"2024-10-15T21:00:00:Z","depth":0,"parameterNumber":2,"parameterNumberName":"U-component_of_WINDS"},"data":[0,0,0,0,0,0,0,0,0,0,0,0,0,0,0,0,0,0,0,0,0,0,0,0,0,0,0,0,0,0,0,0,0,0,0,0,0,0,0,0,0,0,0,0,0,0,0,0,0,0,0,0,0,0,0,0,0,0,-2.9426,-2.9427,0,-2.9475,-2.9475,-2.9476,-2.9394,-2.9391,-2.9389,-2.9386,-2.9434,-2.9438,-2.9442,0,0,0,0,0,0,0,0,0,0,0,0,0,-2.9262,-2.9266,-2.9426,-2.9427,-2.9428,-2.9474,-2.9475,-2.9476,-2.9395,-2.9391,-2.9388,-2.9385,-2.9433,-2.9438,-2.9442,0,0,0,0,0,0,0,0,0,0,0,0,0,-2.9324,-2.9267,-2.9426,-2.9393,-2.939,-2.9474,-2.9475,-2.9476,-2.9395,-2.9391,-2.9387,-2.9383,-2.9432,-2.9437,-2.9443,-2.9562,0,0,-2.9461,-2.9463,0,0,0,0,0,0,0,0,-2.9321,-2.933,-2.9397,-2.9395,-2.9393,-2.9424,-2.9435,-2.9505,-2.9396,-2.9393,-2.9386,-2.9381,-2.9434,-2.944,-2.9458,-2.9564,-2.9566,-2.9461,-2.9465,-2.9467,-2.9469,0,0,0,0,0,0,0,-2.9317,-2.9328,-2.9445,-2.9398,-2.9395,-2.9375,-2.9379,-2.9448,-2.9436,-2.9393,-2.9388,-2.9394,-2.9432,-2.9452,-2.9458,-2.9567,-2.9461,-2.9466,-2.947,-2.9472,-2.9771,-2.9775,0,0,0,0,0,0,-2.9317,-2.9325,-2.9444,-2.9447,-2.9346,-2.9381,-2.9386,-2.9418,-2.9436,-2.9434,-2.9398,-2.939,-2.9444,-2.9452,-2.946,-2.9599,-2.9467,-2.9473,-2.9476,-2.9766,-2.9772,-2.9777,0,0,0,0,0,0,-2.9313,-2.9328,-2.9442,-2.9384,-2.9397,-2.9388,-2.9425,-2.9421,-2.9441,-2.9439,-2.9436,-2.9421,-2.9441,-2.9451,-2.9537,-2.9599,-2.9475,-2.9481,-2.9761,-2.9768,-2.9774,-2.9879,0,0,0,0,0,0,-2.9309,-2.9327,-2.9373,-2.9386,-2.9401,-2.9519,-2.9429,-2.9425,-2.9452,-2.9442,-2.946,-2.9458,-2.9439,-2.9528,-2.9542,-2.9605,-2.9485,-2.9756,-2.9764,-2.9772,-2.987,-2.9888,-2.9904,0,0,0,0,0,-2.9303,-2.9401,-2.9376,-2.9391,-2.9458,-2.9523,-2.9531,-2.9507,-2.9457,-2.9502,-2.9501,-2.9458,-2.959,-2.9538,-2.9553,-2.9618,-2.9752,-2.9762,-2.9772,-2.9862,-2.9885,-2.9904,0,0,0,0,0,0,-2.9396,-2.9402,-2.9374,-2.9479,-2.9501,-2.9509,-2.9566,-2.9532,-2.9569,-2.9558,-2.9526,-2.9531,-2.9622,-2.9629,-2.957,-2.9733,-2.9662,-2.9676,-2.9726,-2.9747,-2.9764,-2.9761,-2.949,0,0,0,0,0,-2.9428,-2.9481,-2.9484,-2.9575,-2.9588,-2.9575,-2.9603,-2.9582,-2.9604,-2.9613,-2.9617,-2.9639,-2.9685,-2.9717,-2.9759,-2.987,-2.9872,-2.9922,-2.9939,-2.9953,-2.9966,-3.0023,-3.0045,-2.981,-2.981,-2.9809,0,0,-2.9496,-2.9506,-2.9541,-2.9594,-2.9609,-2.9664,-2.9584,-2.9645,-2.9686,-2.9622,-2.9702,-2.9706,-2.9729,-2.9827,-2.987,-2.9835,-3.0031,-2.9966,-2.9978,-2.9982,-3.0036,-3.0058,-3.0078,-2.9816,-2.9815,-2.9814,0,0,-2.9647,-2.9661,-2.9738,-2.9754,-2.9777,-2.9768,-2.9787,-2.98,-2.98,-2.988,-2.9833,-2.988,-2.996,-2.9978,-2.9997,-3.0154,-3.0115,-3.0168,-3.0258,-3.0315,-3.0333,-3.035,-3.0405,-3.0425,-3.018,-3.0181,-3.0181,0,-2.9728,-2.981,-2.9782,-2.9847,-2.9871,-2.9815,-2.9893,-2.991,-2.9946,-2.9963,-2.9923,-3.0022,-3.0033,-3.0134,-3.0172,-3.019,-3.021,-3.0167,-3.0333,-3.0349,-3.0364,-3.0416,-3.0437,-3.0187,-3.0186,-3.0186,-3.0185,0,-2.9908,-2.9965,-3.0025,-3.0061,-3.0091,-3.0162,-3.0144,-3.0178,-3.0155,-3.0149,-3.0231,-3.0242,-3.0285,-3.0308,-3.0286,-3.0405,-3.0382,-3.0338,-3.0266,-3.0393,-3.0441,-3.0461,-3.0196,-3.0194,-3.0192,-3.019,0,0,-3.012,-3.0138,-3.0161,-3.0176,-3.0197,-3.024,-3.0307,-3.035,-3.0379,-3.0406,-3.0461,-3.053,-3.0488,-3.0511,-3.0489,-3.0539,-3.0661,-3.0489,-3.0489,-3.052,-3.0792,-3.0825,-3.0849,-3.0636,-3.0639,-3.0642,-3.079,0,-3.027,-3.0387,-3.0363,-3.0478,-3.0529,-3.0476,-3.0535,-3.0554,-3.055,-3.0593,-3.0588,-3.0637,-3.058,-3.0592,-3.0639,-3.0636,-3.0715,-3.0625,-3.0686,-3.0688,-3.0682,-3.0874,-3.0909,-3.1048,-3.0809,-3.0812,-3.0814,0,-3.0461,-3.0494,-3.0614,-3.0625,-3.0645,-3.0699,-3.0735,-3.0776,-3.0796,-3.0789,-3.0814,-3.0783,-3.0849,-3.0776,-3.0866,-3.0805,-3.0828,-3.083,-3.0835,-3.084,-3.0759,-3.0883,-3.1092,-3.1113,-3.0844,-3.0842,-3.0839,0,-3.0602,-3.0677,-3.0757,-3.0772,-3.0787,-3.0826,-3.0834,-3.0849,-3.0876,-3.0907,-3.0923,-3.0962,-3.0983,-3.1013,-3.0993,-3.0942,-3.1086,-3.1012,-3.1082,-3.1082,-3.1114,-3.1113,-3.133,-3.113,-3.113,-3.113,-3.1129,0,-3.0772,-3.0847,-3.0821,-3.0871,-3.0953,-3.0924,-3.1006,-3.1008,-3.1022,-3.107,-3.1026,-3.1073,-3.1043,-3.1087,-3.1071,-3.1147,-3.1157,-3.1153,-3.1148,-3.1157,-3.1157,-3.1171,-3.1161,-3.1135,-3.1134,-3.1133,-3.1132,0,-3.0944,-3.093,-3.1014,-3.1022,-3.1025,-3.1085,-3.1091,-3.1137,-3.1129,-3.1191,-3.1204,-3.1192,-3.1241,-3.1223,-3.1275,-3.1265,-3.1361,-3.1344,-3.1355,-3.135,-3.1421,-3.1414,-3.1654,-3.1684,-3.1466,-3.1468,-3.147,0,-3.1053,-3.111,-3.1123,-3.1152,-3.1163,-3.1211,-3.1238,-3.1211,-3.124,-3.1266,-3.1308,-3.1353,-3.1388,-3.1468,-3.1464,-3.1503,-3.1485,-3.1567,-3.1491,-3.1498,-3.1486,-3.1482,-3.1487,-3.1582,-3.1585,-3.1587,-3.1588,0,-3.1248,-3.1238,-3.1278,-3.1316,-3.1349,-3.1377,-3.1402,-3.1428,-3.1402,-3.1437,-3.1486,-3.1513,-3.1566,-3.1611,-3.1646,-3.1653,-3.1616,-3.1612,-3.163,-3.164,-3.1643,-3.1641,-3.1396,-3.1607,-3.1605,-3.1604,-3.1603,-3.1602,-3.1392,-3.1439,-3.1455,-3.1501,-3.1516,-3.154,-3.1583,-3.158,-3.1621,-3.1662,-3.1643,-3.17,-3.1716,-3.1759,-3.1771,-3.1815,-3.1783,-3.181,-3.1816,-3.1823,-3.1832,-3.1637,-3.1821,-3.182,-3.182,-3.1819,-3.1819,0,-3.1584,-3.1591,-3.1634,-3.1669,-3.1704,-3.1667,-3.1692,-3.1724,-3.1774,-3.1793,-3.1827,-3.1883,-3.1926,-3.1925,-3.1964,-3.1999,-3.1983,-3.201,-3.2007,-3.2009,-3.1858,-3.1838,-3.2022,-3.2022,-3.2022,-3.2022,-3.2022,-3.2022,-3.1688,-3.1765,-3.1757,-3.1841,-3.1847,-3.1903,-3.192,-3.1941,-3.1955,-3.202,-3.2055,-3.2054,-3.2064,-3.2103,-3.214,-3.2138,-3.2155,-3.2188,-3.218,-3.204,-3.2019,-3.2,-3.1981,-3.2192,-3.2192,-3.2326,-3.2328,-3.2329]},{"header":{"parameterUnit":"m.s-1","parameterCategory":1,"la1":30.2991,"la2":30.254,"lo1":-89.0895,"lo2":-89.0444,"dy":0.0017,"dx":0.0017,"nx":28,"ny":28,"refTime":"2024-10-15T21:00:00:Z","depth":0,"parameterNumber":3,"parameterNumberName":"V-component_of_WINDS"},"data":[0,0,0,0,0,0,0,0,0,0,0,0,0,0,0,0,0,0,0,0,0,0,0,0,0,0,0,0,0,0,0,0,0,0,0,0,0,0,0,0,0,0,0,0,0,0,0,0,0,0,0,0,0,0,0,0,0,0,-6.7354,-6.7355,0,-6.7432,-6.7433,-6.7434,-6.7333,-6.733,-6.7326,-6.7323,-6.7397,-6.7402,-6.7407,0,0,0,0,0,0,0,0,0,0,0,0,0,-6.7112,-6.7117,-6.7354,-6.7355,-6.7356,-6.7432,-6.7433,-6.7434,-6.7334,-6.733,-6.7325,-6.7321,-6.7395,-6.7401,-6.7408,0,0,0,0,0,0,0,0,0,0,0,0,0,-6.7206,-6.7118,-6.7354,-6.7315,-6.7313,-6.7432,-6.7433,-6.7434,-6.7335,-6.7329,-6.7324,-6.7319,-6.7393,-6.7401,-6.7409,-6.7567,0,0,-6.7433,-6.7437,0,0,0,0,0,0,0,0,-6.7201,-6.7215,-6.732,-6.7318,-6.7316,-6.7367,-6.7374,-6.7479,-6.7336,-6.7326,-6.7323,-6.7316,-6.7391,-6.7399,-6.7425,-6.7571,-6.7574,-6.7434,-6.7439,-6.7442,-6.7444,0,0,0,0,0,0,0,-6.7194,-6.7211,-6.7385,-6.7322,-6.7319,-6.7292,-6.7299,-6.7394,-6.7388,-6.7327,-6.732,-6.7331,-6.7389,-6.7418,-6.7426,-6.7575,-6.7434,-6.7441,-6.7446,-6.7449,-6.7851,-6.7857,0,0,0,0,0,0,-6.7193,-6.7206,-6.7382,-6.7387,-6.7244,-6.7301,-6.7309,-6.7356,-6.7387,-6.7386,-6.7335,-6.7326,-6.7407,-6.7417,-6.7428,-6.7614,-6.7442,-6.745,-6.7454,-6.7846,-6.7853,-6.7859,0,0,0,0,0,0,-6.7188,-6.721,-6.7379,-6.7295,-6.7314,-6.7311,-6.7365,-6.7361,-6.739,-6.7393,-6.7391,-6.7366,-6.7403,-6.7417,-6.7533,-6.7615,-6.7453,-6.746,-6.7839,-6.7848,-6.7856,-6.7989,0,0,0,0,0,0,-6.7182,-6.7209,-6.7271,-6.7297,-6.7319,-6.7485,-6.737,-6.7366,-6.7404,-6.7393,-6.7422,-6.7421,-6.74,-6.7522,-6.7541,-6.7624,-6.7467,-6.7831,-6.7843,-6.7853,-6.7977,-6.8001,-6.8022,0,0,0,0,0,-6.7174,-6.7304,-6.7275,-6.7296,-6.7397,-6.749,-6.7502,-6.7476,-6.7412,-6.7472,-6.7474,-6.7421,-6.7604,-6.7535,-6.7556,-6.7642,-6.7826,-6.7839,-6.7852,-6.7967,-6.7996,-6.8021,0,0,0,0,0,0,-6.7286,-6.7307,-6.7274,-6.7418,-6.7453,-6.7473,-6.7549,-6.7509,-6.7561,-6.7548,-6.7511,-6.7519,-6.7642,-6.7653,-6.7576,-6.7795,-6.7704,-6.7722,-6.7784,-6.7812,-6.7833,-6.7827,-6.7473,0,0,0,0,0,-6.7328,-6.7404,-6.7417,-6.7543,-6.7562,-6.7553,-6.7593,-6.7569,-6.7604,-6.7617,-6.7628,-6.7662,-6.7726,-6.777,-6.7829,-6.7978,-6.7982,-6.8048,-6.807,-6.8088,-6.8104,-6.8181,-6.821,-6.7902,-6.7902,-6.7902,0,0,-6.7414,-6.7435,-6.7485,-6.7566,-6.759,-6.7667,-6.7566,-6.7652,-6.7708,-6.763,-6.774,-6.7749,-6.7784,-6.7917,-6.7975,-6.793,-6.8189,-6.8105,-6.812,-6.8125,-6.8197,-6.8226,-6.8252,-6.7911,-6.791,-6.7908,0,0,-6.7611,-6.7636,-6.7742,-6.7769,-6.7808,-6.7801,-6.7827,-6.7853,-6.7856,-6.7967,-6.7909,-6.7974,-6.8087,-6.8114,-6.8142,-6.8348,-6.8299,-6.8368,-6.8484,-6.856,-6.8584,-6.8605,-6.8677,-6.8703,-6.8384,-6.8385,-6.8385,0,-6.7713,-6.783,-6.7801,-6.7892,-6.7928,-6.7862,-6.7967,-6.7994,-6.805,-6.8075,-6.8024,-6.8163,-6.8182,-6.8319,-6.8369,-6.8395,-6.8421,-6.8364,-6.8583,-6.8604,-6.8624,-6.8691,-6.8719,-6.8392,-6.8392,-6.8391,-6.839,0,-6.7952,-6.8033,-6.8114,-6.8171,-6.8216,-6.8314,-6.8298,-6.8347,-6.8319,-6.8317,-6.8429,-6.8449,-6.8511,-6.8542,-6.8516,-6.8675,-6.8645,-6.859,-6.8496,-6.8662,-6.8724,-6.875,-6.8404,-6.8401,-6.8399,-6.8397,0,0,-6.8222,-6.8262,-6.8292,-6.8317,-6.8354,-6.8415,-6.8509,-6.8571,-6.8612,-6.8653,-6.8729,-6.8826,-6.8774,-6.8806,-6.8782,-6.8849,-6.9008,-6.8784,-6.8784,-6.8823,-6.9182,-6.9223,-6.9253,-6.8977,-6.8981,-6.8985,-6.9178,0,-6.8417,-6.8581,-6.8558,-6.8715,-6.8788,-6.8726,-6.8807,-6.8837,-6.8838,-6.8898,-6.8896,-6.8965,-6.8893,-6.8911,-6.8975,-6.8975,-6.9079,-6.8961,-6.9044,-6.9047,-6.9036,-6.9286,-6.933,-6.9511,-6.9203,-6.9207,-6.921,0,-6.8667,-6.8719,-6.8883,-6.8908,-6.8938,-6.9012,-6.9066,-6.9125,-6.9158,-6.9152,-6.9189,-6.9152,-6.9243,-6.915,-6.9272,-6.9193,-6.9225,-6.923,-6.9237,-6.9242,-6.9138,-6.9297,-6.9569,-6.9595,-6.9249,-6.9246,-6.9243,0,-6.8845,-6.8955,-6.9067,-6.909,-6.9123,-6.9176,-6.9191,-6.9219,-6.9257,-6.9304,-6.9328,-6.9384,-6.9415,-6.9458,-6.9437,-6.9371,-6.9563,-6.9468,-6.9559,-6.956,-6.9601,-6.9599,-6.988,-6.9625,-6.9625,-6.9624,-6.9624,0,-6.9065,-6.9168,-6.9148,-6.9217,-6.9329,-6.93,-6.9411,-6.9418,-6.9443,-6.951,-6.946,-6.9524,-6.9493,-6.9553,-6.9537,-6.964,-6.9655,-6.9651,-6.9645,-6.9655,-6.9655,-6.9675,-6.9661,-6.9632,-6.963,-6.9629,-6.9627,0,-6.9282,-6.9274,-6.9391,-6.9413,-6.942,-6.9502,-6.9519,-6.9582,-6.9578,-6.9664,-6.9682,-6.9675,-6.9744,-6.9728,-6.9803,-6.9791,-6.9921,-6.99,-6.991,-6.9905,-6.9996,-6.9987,-7.0299,-7.0337,-7.0059,-7.0062,-7.0064,0,-6.9423,-6.95,-6.953,-6.9573,-6.9593,-6.9662,-6.9701,-6.9675,-6.9717,-6.976,-6.9817,-6.9882,-6.9932,-7.0045,-7.0045,-7.0101,-7.008,-7.0185,-7.0088,-7.0095,-7.0079,-7.0074,-7.0081,-7.0204,-7.0207,-7.021,-7.0212,0,-6.9672,-6.9663,-6.9723,-6.9781,-6.983,-6.9874,-6.9913,-6.9949,-6.9926,-6.9976,-7.0047,-7.0086,-7.0163,-7.0226,-7.0278,-7.0291,-7.0248,-7.0243,-7.0267,-7.0276,-7.0279,-7.0277,-6.9961,-7.0236,-7.0233,-7.0232,-7.023,-7.0229,-6.9853,-6.9919,-6.995,-7.0018,-7.0044,-7.0082,-7.0142,-7.0146,-7.0205,-7.0266,-7.0247,-7.0327,-7.0355,-7.042,-7.044,-7.05,-7.046,-7.0495,-7.0504,-7.0512,-7.0523,-7.0271,-7.051,-7.0509,-7.0509,-7.0508,-7.0508,0,-7.0098,-7.0115,-7.0178,-7.0234,-7.0287,-7.0243,-7.0284,-7.033,-7.0401,-7.0432,-7.0483,-7.0563,-7.0625,-7.063,-7.0687,-7.0735,-7.0716,-7.075,-7.0746,-7.0749,-7.0556,-7.0529,-7.0765,-7.0765,-7.0765,-7.0764,-7.0764,-7.0764,-7.0232,-7.034,-7.0335,-7.0454,-7.047,-7.0549,-7.0576,-7.0609,-7.0633,-7.0726,-7.0777,-7.0781,-7.0801,-7.0859,-7.0913,-7.0912,-7.0935,-7.0977,-7.0969,-7.0788,-7.0763,-7.0738,-7.0713,-7.0982,-7.0983,-7.1156,-7.1157,-7.1159]}]]